DECAYED

OBJECT K, 57013 (Decayed)

Orbit data source: Space-Track

You're viewing an Uncataloged Satellite

Recently launched and/or uncataloged satellites may have evolving metadata. Metadata may include but not limited to: Owner, Maufacturer, Bus, Motor, and Mission.

OBJECT K, 57013 was a Chinese satellite in LEO that was launched on Thu, 15 Jun 2023 UTC via a CHANG ZHENG 2D launch vehicle from the Taiyaun Space Center, China (TSC). Unknown objects in Earth's orbit typically refer to objects detected orbiting the Earth but have not yet been identified or cataloged. These objects could be anything from previously untracked satellites, spent rocket stages, debris from satellite collisions, or even natural meteoroids temporarily captured by Earth's gravity. This object's orbit decayed before it could be identified.

Not visible in the next 10 days
Identifier
57013, 2023-085K
Orbit
Decayed
Country
Flag of CNCN / PRC
Related business
None
Manufacturer
Unknown
Mission
Decayed Commercial Imaging
Bus & Motor
Unknown
Mass
Unknown
Launch date (UTC)
2023-06-15 (3 years ago)
Launch vehicle
CHANG ZHENG 2D
Launch site
Taiyaun Space Center, China (TSC)
Object type
Unknown
Shape & HBR
Box, 0.8 m
Radar Cross Section
2.000 m², Medium (>0.1 m² and < 1m²)

Expand to show TLE details & history
Last TLE update: 5 months ago

TLE from 5 months ago
0 OBJECT K
1 57013U 23085K   26014.19317089  .09012894  25213-5  11075-2 0  9992
2 57013  97.4428 141.8537 0008439 289.4272  70.6113 16.36219876 74524
Epoch: 2026-01-14T04:38Z
TLE epoch observation values (Epoch: 2026-01-14T04:38:09.964Z)
Latitude
-0.00005°
Longitude
-41.35248°
Altitude
177.29 km
Speed
7.801 km/s
True Right ascension
09h 27m 24s
True Declination
0° 00' 00"
Sunlit
Object was in full shadow at epoch
Visualization orbit readout
Latitude
Unknown
Longitude
Unknown
Altitude
Unknown
Speed
Unknown
Apparent Right ascension
Unknown
Apparent Declination
Unknown
Sunlit
N/A
Visualization observer readout
Local Sidereal Time
21:27:15
Azimuth
Unknown
Elevation
Unknown
Doppler factor
Unknown
Orbital elements
Apogee altitude
178.22 km
Perigee altitude
167.164 km
Semi-major axis
6,550.829 km
Eccentricity
0.00084
Inclination
97.4428°
RAAN
141.8537°
Arg. of periapsis
289.4272°
True anomaly
70.70255°
Mean anomaly
70.6113°
Eccentric anomaly
70.65692°
Mean motion
4.09354 °/min
Orbital period
87.94 mins
BSTAR
0.0011075
Loading maneuver chart data...
Computing Atmospheric mass density...
Loading historical data...
Loading historical data...
Loading historical data...
Loading historical data...
Loading historical data...
Loading historical data...
Loading historical data...

Documentation

Showing up to 5 results
|